Regional Weather Roundup
Issued by NWS

Home | Current Version | Previous Version | Text Only | Print | Product List | Glossary Off
Versions: 1 2 3 4 5 6 7 8 9 10 11 12 13 14 15 16 17 18 19 20 21 22 23 24 25 26 27 28 29 30 31 32 33 34 35 36 37 38 39 40 41 42 43 44 45 46 47 48 49 50

000
ASUS44 KMEG 291900
RWRTN
TENNESSEE HOURLY STATE WEATHER ROUNDUP
NATIONAL WEATHER SERVICE MEMPHIS TN
200 PM CDT MON SEP 29 2014

TNZ002-004-019-021-049-052-054-088>092-292000-
WEST TENNESSEE

CITY           SKY/WX    TMP DP  RH WIND       PRES   REMARKS
MEMPHIS INTL   MOSUNNY   85  60  42 NE13      29.98F
NWS MEMPHIS      N/A     83 N/A N/A MISG        N/A
JACKSON        MOSUNNY   84  60  44 E6        29.98F
DYERSBURG      MOSUNNY   82  55  39 N3        29.99F
UNION CITY     SUNNY     84  57  39 VRB3      29.97F
PARIS          SUNNY     82  57  42 VRB5      29.98F
SAVANNAH       SUNNY     84  63  48 NW8       29.98F
$$

TNZ008-025-027-028-033-062-065-066-292000-
NORTH MIDDLE TENNESSEE

CITY           SKY/WX    TMP DP  RH WIND       PRES   REMARKS
NASHVILLE      MOSUNNY   86  56  35 N7        29.98F
CLARKSVILLE    MOSUNNY   84  58  40 CALM      29.97F
COOKEVILLE     MOSUNNY   82  61  47 NE6       29.99F
CROSSVILLE     PTSUNNY   79  56  45 MISG      30.02F
$$

TNZ061-075-076-078-094-096-097-292000-
SOUTH MIDDLE TENNESSEE

CITY           SKY/WX    TMP DP  RH WIND       PRES   REMARKS
SHELBYVILLE    SUNNY     84  61  45 VRB5      29.98F
$$

TNZ017-018-042-046-047-292000-
NORTHEAST TENNESSEE

CITY           SKY/WX    TMP DP  RH WIND       PRES   REMARKS
TRI CITIES     PTSUNNY   73  59  61 SE3       30.02F
ELIZABETHTON   CLOUDY    70  61  73 W5        30.02F
$$

TNZ012-013-036-069-073-074-292000-
CENTRAL EAST TENNESSEE

CITY           SKY/WX    TMP DP  RH WIND       PRES   REMARKS
KNOXVILLE      PTSUNNY   77  61  57 VRB7      29.98F
OAK RIDGE      MOSUNNY   80  60  50 VRB3      29.99F
GATLINBURG     PTCLDY    77  61  57 VRB5      29.99F
$$

TNZ083-085-099-292000-
SOUTHEAST TENNESSEE

CITY           SKY/WX    TMP DP  RH WIND       PRES   REMARKS
CHATTANOOGA    PTSUNNY   78  65  63 SE7       29.98F
$$

SKY/WX REPORTED AS FAIR MEANS FEW OR NO CLOUDS BELOW
12 THOUSAND FEET.



USA.gov is the U.S. government's official web portal to all federal, state and local government web resources and services.